This is the latest recevied weather packets stored in our database for station/object HB9CJD-1. If no packets are shown the sender has not sent any weather packets the latest 1 day(s).
| Time | Temp. | Humidity | Pressure | Rain* | Wind** | Luminosity | Snow |
|---|---|---|---|---|---|---|---|
| 1836274308 | 17.78° C | 72% | 1025.5 hPa | - | 0 m/s | - | - |
| 1836274308 | 17.78° C | 72% | 1025.5 hPa | - | 0 m/s | - | - |
| 1836274162 | 17.78° C | 70% | 1025.5 hPa | - | 0 m/s | - | - |
| 1836274161 | 17.78° C | 70% | 1025.5 hPa | - | 0 m/s | - | - |
| 1778004803 | 14.44° C | 79% | 1012.3 hPa | - | 0 m/s | - | - |
| 1778004803 | 14.44° C | 79% | 1012.3 hPa | - | 0 m/s | - | - |
| 1778004199 | 14.44° C | 77% | 1012.4 hPa | - | 0 m/s | - | - |
| 1778004199 | 14.44° C | 77% | 1012.4 hPa | - | 0 m/s | - | - |
| 1778003597 | 14.44° C | 75% | 1012.4 hPa | - | 0 m/s | - | - |
| 1778003596 | 14.44° C | 75% | 1012.4 hPa | - | 0 m/s | - | - |
| 1778002993 | 14.44° C | 77% | 1012.5 hPa | - | 0 m/s | - | - |
| 1778002993 | 14.44° C | 77% | 1012.5 hPa | - | 0 m/s | - | - |
| 1778002390 | 13.89° C | 78% | 1012.5 hPa | - | 0 m/s | - | - |
| 1778002390 | 13.89° C | 78% | 1012.5 hPa | - | 0 m/s | - | - |
| 1778001786 | 13.89° C | 75% | 1012.3 hPa | - | 0 m/s | - | - |
| 1778001786 | 13.89° C | 75% | 1012.3 hPa | - | 0 m/s | - | - |
| 1778001183 | 13.89° C | 80% | 1012.3 hPa | - | 0 m/s | - | - |
| 1778001183 | 13.89° C | 80% | 1012.3 hPa | - | 0 m/s | - | - |
| 1778000580 | 14.44° C | 75% | 1012.2 hPa | - | 0 m/s | - | - |
| 1778000580 | 14.44° C | 75% | 1012.2 hPa | - | 0 m/s | - | - |
| 1777999977 | 14.44° C | 74% | 1012.2 hPa | - | 0 m/s | - | - |
| 1777999977 | 14.44° C | 74% | 1012.2 hPa | - | 0 m/s | - | - |
| 1777999373 | 13.89° C | 75% | 1012.5 hPa | - | 0 m/s | - | - |
| 1777999373 | 13.89° C | 75% | 1012.5 hPa | - | 0 m/s | - | - |
| 1777998770 | 13.89° C | 72% | 1012.5 hPa | - | 0 m/s | - | - |
* Rain since midnight (hover to see other rain measurements)
** Current wind speed in m/s (hover to see current wind gust speed)